"Pseudo-MPEC" for P11JB63

Created 2023 Oct 5 9:22:12 UT using Find_Orb

Click here for an explanation of pseudo-MPECs

 
 Astrometry: 
     P11JB63* C2023 09 15-KeMldtT1AstrometryX0G^j3b)gCEFCub6E%.oQBZXiy,C0e-1IF51
     P11JB63  C2023 09 15wEe[2c3`!uvT^'p-XmBk\Awredacted;Y+bf=ebQyN:YaZ6Q[kibF51
     P11JB63  C2023 09 15;wt.?click?j:=#EYjherebEb$P;-jtnD.+OiP?+kpZT5yx)NvFkF51
     P11JB63  C2023 09 15u.IK#Vow%m+dCO:4_2n9!nl*dforn2explanation:nWi[:Ykc0pF51

Station data:
(F51) Pan-STARRS 1, Haleakala  (N20.707234 W156.255910)  US/Hawaii.
   Observers J. Bulger, T. Lowe, A. Schultz, M. Willman. Measurers K.
   Chambers, S. Chastel, T. de Boer, L. Denneau, J. Fairlamb, H. Flewelling,
   M. Huber, C.-C. Lin, E. Magnier, Y. Ramanjooloo, R. Wainscoat, R. Weryk.
   1.8-m Ritchey-Chrétien + CCD.

Orbital elements:  P11JB63
   Perihelion 2023 Jul 25.53787 +/- 52.6 TT = 12:54:31 (JD 2460151.03787)
Epoch 2023 Sep 15.0 TT = JDT 2460202.5   Earth MOID: 0.4947   Ju: 0.5676
M   7.71954255 +/- 14               (J2000 ecliptic)             AutoNEOCP
n   0.15000433 +/- 0.191            Peri.  253.63660 +/- 90
a   3.50805866 +/- 2.98             Node    66.81182 +/- 41
e   0.5781059 +/- 0.243             Incl.    8.09208 +/- 4.7
P   6.57                   H 21.42  G  0.15   U 11.6  SR
q 1.48002913 +/- 0.528    Q 5.53608819 +/- 106
From 4 observations 2023 Sept. 15 (50.9 min); mean residual 0".06
Residuals in arcseconds: 
230915 F51  .03-  .06+    230915 F51  .07-  .00     
230915 F51  .08+  .09-    230915 F51  .02+  .03+    

Ephemerides (geocentric):
Date (UTC) HH   RA             Dec           delta  r     elong  mag " sig PA
---- --------  ------------   ------------  ------ ------ -----  --- --------
2023 10 05 09  00 21 59.452   -16 22 51.37  .69164 1.6630 158.5 22.5  44d  78
2023 10 05 10  00 21 58.252   -16 22 25.38  .69191 1.6632 158.4 22.5  44d  78
2023 10 05 11  00 21 57.053   -16 21 59.37  .69217 1.6634 158.4 22.5  44d  78
2023 10 05 12  00 21 55.856   -16 21 33.33  .69243 1.6636 158.4 22.5  44d  78
2023 10 05 13  00 21 54.661   -16 21 07.27  .69269 1.6638 158.4 22.5  44d  78
2023 10 05 14  00 21 53.467   -16 20 41.19  .69295 1.6639 158.4 22.5  44d  78
2023 10 05 15  00 21 52.276   -16 20 15.09  .69322 1.6641 158.3 22.5  44d  78
2023 10 05 16  00 21 51.086   -16 19 48.96  .69348 1.6643 158.3 22.5  44d  78
2023 10 05 17  00 21 49.897   -16 19 22.81  .69374 1.6645 158.3 22.5  44d  78
2023 10 05 18  00 21 48.711   -16 18 56.64  .69401 1.6647 158.3 22.5  44d  78
2023 10 05 19  00 21 47.526   -16 18 30.44  .69427 1.6649 158.3 22.5  44d  78
2023 10 05 20  00 21 46.343   -16 18 04.23  .69454 1.6651 158.2 22.5  44d  78
2023 10 05 21  00 21 45.161   -16 17 37.98  .69480 1.6653 158.2 22.5  44d  78
2023 10 05 22  00 21 43.982   -16 17 11.72  .69507 1.6655 158.2 22.5  44d  78
2023 10 05 23  00 21 42.804   -16 16 45.43  .69533 1.6657 158.2 22.5  44d  78
2023 10 06 00  00 21 41.628   -16 16 19.12  .69560 1.6659 158.2 22.5  44d  78
2023 10 06 01  00 21 40.453   -16 15 52.79  .69586 1.6661 158.1 22.5  44d  78
2023 10 06 02  00 21 39.281   -16 15 26.44  .69613 1.6663 158.1 22.5  44d  78
2023 10 06 03  00 21 38.110   -16 15 00.06  .69640 1.6665 158.1 22.5  44d  78
2023 10 06 04  00 21 36.941   -16 14 33.66  .69666 1.6667 158.1 22.5  44d  78
2023 10 06 05  00 21 35.774   -16 14 07.24  .69693 1.6669 158.1 22.5  44d  78
2023 10 06 06  00 21 34.608   -16 13 40.79  .69720 1.6671 158.0 22.5  44d  78
2023 10 06 07  00 21 33.445   -16 13 14.33  .69747 1.6673 158.0 22.5  44d  78
2023 10 06 08  00 21 32.283   -16 12 47.84  .69773 1.6675 158.0 22.5  44d  78
2023 10 06 09  00 21 31.123   -16 12 21.32  .69800 1.6677 158.0 22.5  44d  78
2023 10 06 10  00 21 29.965   -16 11 54.79  .69827 1.6678 158.0 22.5  44d  78
2023 10 06 11  00 21 28.808   -16 11 28.23  .69854 1.6680 157.9 22.5  44d  78
2023 10 06 12  00 21 27.654   -16 11 01.65  .69881 1.6682 157.9 22.5  44d  78
2023 10 06 13  00 21 26.501   -16 10 35.05  .69908 1.6684 157.9 22.5  44d  78
2023 10 06 14  00 21 25.350   -16 10 08.43  .69935 1.6686 157.9 22.5  44d  78
2023 10 06 15  00 21 24.201   -16 09 41.78  .69962 1.6688 157.9 22.5  44d  78
2023 10 06 16  00 21 23.054   -16 09 15.11  .69989 1.6690 157.8 22.5  44d  78
2023 10 06 17  00 21 21.908   -16 08 48.42  .70016 1.6692 157.8 22.5  44d  78
2023 10 06 18  00 21 20.765   -16 08 21.71  .70043 1.6694 157.8 22.5  44d  78
2023 10 06 19  00 21 19.623   -16 07 54.97  .70071 1.6696 157.8 22.5  44d  78
2023 10 06 20  00 21 18.483   -16 07 28.22  .70098 1.6698 157.8 22.5  44d  78
2023 10 06 21  00 21 17.345   -16 07 01.44  .70125 1.6700 157.7 22.5  44d  78
2023 10 06 22  00 21 16.209   -16 06 34.63  .70152 1.6702 157.7 22.5  44d  78
2023 10 06 23  00 21 15.075   -16 06 07.81  .70180 1.6704 157.7 22.5  44d  78
2023 10 07 00  00 21 13.943   -16 05 40.97  .70207 1.6706 157.7 22.5  44d  78
2023 10 07 01  00 21 12.812   -16 05 14.10  .70234 1.6708 157.7 22.5  45d  78
2023 10 07 02  00 21 11.684   -16 04 47.21  .70262 1.6710 157.6 22.5  45d  78
2023 10 07 03  00 21 10.557   -16 04 20.30  .70289 1.6712 157.6 22.5  45d  78
2023 10 07 04  00 21 09.433   -16 03 53.36  .70317 1.6714 157.6 22.5  45d  78
2023 10 07 05  00 21 08.310   -16 03 26.41  .70344 1.6716 157.6 22.5  45d  78
2023 10 07 06  00 21 07.189   -16 02 59.43  .70372 1.6718 157.6 22.5  45d  78
2023 10 07 07  00 21 06.070   -16 02 32.43  .70399 1.6720 157.5 22.5  45d  78
2023 10 07 08  00 21 04.953   -16 02 05.41  .70427 1.6722 157.5 22.5  45d  78